AFL1215 ULLI-UUEE

Flight info

Callsign AFL1215
Flight time N/A
Altitude 37000
Route SUGIN T873 NIRGI T73 NAMIN
Aircraft A320/M-V/N

Departure

Time 2026-05-07 02:07
Airport Pulkovo Airport (ULLI)

Arrival

Time N/A
Airport Sheremetyevo International Airport (UUEE)
Time Latitude Longitude Altitude Speed Heading
2026-05-07 01:58 59.79804 30.26314 85 ft 0 kts 287°
2026-05-07 02:00 59.79804 30.26311 85 ft 0 kts 287°
2026-05-07 02:01 59.79807 30.26290 85 ft 2 kts 287°
2026-05-07 02:01 59.79814 30.26248 85 ft 3 kts 287°
2026-05-07 02:01 59.79808 30.26190 85 ft 5 kts 235°
2026-05-07 02:01 59.79774 30.26147 85 ft 6 kts 200°
2026-05-07 02:02 59.79725 30.26114 85 ft 8 kts 198°
2026-05-07 02:02 59.79667 30.26076 85 ft 9 kts 198°
2026-05-07 02:02 59.79604 30.26021 85 ft 10 kts 220°
2026-05-07 02:02 59.79583 30.25832 85 ft 11 kts 282°
2026-05-07 02:03 59.79596 30.25721 85 ft 12 kts 282°
2026-05-07 02:03 59.79620 30.25551 85 ft 13 kts 286°
2026-05-07 02:03 59.79647 30.25370 85 ft 14 kts 285°
2026-05-07 02:03 59.79674 30.25181 85 ft 14 kts 285°
2026-05-07 02:04 59.79702 30.24981 84 ft 15 kts 285°
2026-05-07 02:04 59.79730 30.24777 84 ft 15 kts 285°
2026-05-07 02:04 59.79763 30.24572 84 ft 15 kts 291°
2026-05-07 02:04 59.79804 30.24365 84 ft 16 kts 289°
2026-05-07 02:05 59.79842 30.24151 84 ft 16 kts 288°
2026-05-07 02:05 59.79870 30.23929 84 ft 16 kts 283°
2026-05-07 02:05 59.79897 30.23705 84 ft 16 kts 283°
2026-05-07 02:05 59.79924 30.23478 84 ft 17 kts 284°
2026-05-07 02:06 59.79959 30.23251 84 ft 17 kts 287°
2026-05-07 02:06 59.79940 30.23057 84 ft 15 kts 191°
2026-05-07 02:06 59.79849 30.23181 84 ft 19 kts 135°
2026-05-07 02:06 59.79695 30.23860 85 ft 90 kts 106°
2026-05-07 02:07 59.79462 30.25469 85 ft 150 kts 106°
2026-05-07 02:07 59.78785 30.30236 911 ft 186 kts 103°
2026-05-07 02:07 59.78459 30.32691 1685 ft 185 kts 104°
2026-05-07 02:08 59.78073 30.35146 2391 ft 188 kts 106°
2026-05-07 02:08 59.77634 30.37800 2775 ft 211 kts 106°
2026-05-07 02:08 59.77171 30.40712 3256 ft 229 kts 105°
2026-05-07 02:08 59.76685 30.43852 3846 ft 244 kts 105°
2026-05-07 02:09 59.76194 30.47064 4656 ft 250 kts 105°
2026-05-07 02:09 59.75692 30.50363 5531 ft 253 kts 105°
2026-05-07 02:09 59.75182 30.53725 6382 ft 258 kts 105°
2026-05-07 02:09 59.74662 30.57186 7219 ft 263 kts 104°
2026-05-07 02:10 59.74187 30.60663 8009 ft 269 kts 103°
2026-05-07 02:10 59.73708 30.64277 8767 ft 275 kts 104°
2026-05-07 02:10 59.73220 30.67963 9499 ft 282 kts 105°
2026-05-07 02:10 59.72718 30.71753 10225 ft 289 kts 105°
2026-05-07 02:11 59.72195 30.75656 10743 ft 304 kts 106°
2026-05-07 02:11 59.71633 30.79826 11137 ft 322 kts 106°
2026-05-07 02:11 59.71034 30.84242 11501 ft 340 kts 106°
2026-05-07 02:11 59.70410 30.88829 12052 ft 351 kts 106°
2026-05-07 02:12 59.69776 30.93490 12755 ft 356 kts 107°
2026-05-07 02:12 59.69135 30.98195 13419 ft 362 kts 107°
2026-05-07 02:12 59.68469 31.03054 14073 ft 368 kts 107°
2026-05-07 02:12 59.67796 31.07955 14703 ft 373 kts 108°
2026-05-07 02:13 59.67110 31.12929 15310 ft 379 kts 108°
2026-05-07 02:13 59.66418 31.17940 15885 ft 386 kts 108°
2026-05-07 02:13 59.65709 31.23052 16469 ft 391 kts 108°
2026-05-07 02:13 59.64986 31.28244 17053 ft 397 kts 109°
2026-05-07 02:14 59.64247 31.33532 17629 ft 402 kts 109°
2026-05-07 02:14 59.63501 31.38845 18190 ft 407 kts 109°
2026-05-07 02:14 59.62737 31.44279 18730 ft 412 kts 109°
2026-05-07 02:14 59.61972 31.49698 19282 ft 417 kts 109°
2026-05-07 02:15 59.61189 31.55227 19844 ft 421 kts 109°
2026-05-07 02:15 59.60398 31.60798 20422 ft 424 kts 109°
2026-05-07 02:15 59.59604 31.66370 20988 ft 427 kts 110°
2026-05-07 02:15 59.58799 31.72023 21535 ft 431 kts 110°
2026-05-07 02:16 59.57993 31.77675 22064 ft 434 kts 110°
2026-05-07 02:16 59.57174 31.83380 22577 ft 437 kts 110°
2026-05-07 02:16 59.56342 31.89165 23075 ft 440 kts 110°
2026-05-07 02:16 59.55502 31.94949 23576 ft 443 kts 110°
2026-05-07 02:17 59.54627 32.00957 24066 ft 446 kts 110°
2026-05-07 02:17 59.53687 32.06790 24489 ft 447 kts 117°
2026-05-07 02:17 59.52248 32.12158 24929 ft 441 kts 130°
2026-05-07 02:17 59.50347 32.16779 25388 ft 434 kts 141°
2026-05-07 02:18 59.48212 32.20978 25868 ft 434 kts 143°
2026-05-07 02:18 59.46055 32.25095 26286 ft 437 kts 143°
2026-05-07 02:18 59.43877 32.29250 26683 ft 441 kts 143°
2026-05-07 02:18 59.41679 32.33472 27080 ft 444 kts 143°
2026-05-07 02:19 59.39497 32.37678 27502 ft 446 kts 142°
2026-05-07 02:19 59.37288 32.41950 27901 ft 448 kts 142°
2026-05-07 02:19 59.35064 32.46247 28251 ft 451 kts 143°
2026-05-07 02:19 59.32849 32.50526 28688 ft 451 kts 143°
2026-05-07 02:20 59.30642 32.54794 29245 ft 448 kts 143°
2026-05-07 02:20 59.28418 32.59086 29766 ft 446 kts 143°
2026-05-07 02:20 59.26224 32.63308 30246 ft 445 kts 143°
2026-05-07 02:20 59.24012 32.67555 30701 ft 444 kts 144°
2026-05-07 02:21 59.21817 32.71774 31122 ft 443 kts 144°
2026-05-07 02:21 59.19613 32.76002 31530 ft 442 kts 144°
2026-05-07 02:21 59.17459 32.80124 31916 ft 441 kts 145°
2026-05-07 02:21 59.15265 32.84306 32281 ft 440 kts 145°
2026-05-07 02:22 59.13086 32.88452 32610 ft 440 kts 145°
2026-05-07 02:22 59.10918 32.92569 32967 ft 439 kts 145°
2026-05-07 02:22 59.08683 32.96801 33351 ft 437 kts 145°
2026-05-07 02:22 59.06457 33.01011 33696 ft 436 kts 145°
2026-05-07 02:23 59.04315 33.05051 34017 ft 436 kts 145°
2026-05-07 02:23 59.02093 33.09238 34327 ft 435 kts 146°
2026-05-07 02:23 58.99839 33.13477 34675 ft 433 kts 146°
2026-05-07 02:23 58.97550 33.17774 34985 ft 431 kts 146°
2026-05-07 02:24 58.95307 33.21973 35236 ft 429 kts 145°
2026-05-07 02:24 58.93065 33.26154 35428 ft 430 kts 145°
2026-05-07 02:24 58.90791 33.30388 35577 ft 431 kts 145°
2026-05-07 02:24 58.88524 33.34586 35691 ft 433 kts 145°
2026-05-07 02:25 58.86241 33.38794 35828 ft 434 kts 144°
2026-05-07 02:25 58.83955 33.43002 35978 ft 436 kts 144°
2026-05-07 02:25 58.81638 33.47274 36114 ft 436 kts 144°
2026-05-07 02:25 58.79346 33.51500 36222 ft 438 kts 144°
2026-05-07 02:26 58.77018 33.55784 36356 ft 439 kts 143°
2026-05-07 02:26 58.74694 33.60053 36507 ft 441 kts 143°
2026-05-07 02:26 58.72395 33.64276 36658 ft 442 kts 143°
2026-05-07 02:26 58.70049 33.68587 36807 ft 443 kts 144°
2026-05-07 02:27 58.67735 33.72836 36956 ft 444 kts 143°
2026-05-07 02:27 58.65384 33.77139 36990 ft 446 kts 144°
2026-05-07 02:27 58.60650 33.85778 37007 ft 446 kts 143°
2026-05-07 02:28 58.55966 33.94276 37011 ft 446 kts 143°
2026-05-07 02:28 58.51237 34.02820 37011 ft 446 kts 143°
2026-05-07 02:29 58.46489 34.11361 37008 ft 446 kts 143°
2026-05-07 02:29 58.41808 34.19756 37001 ft 446 kts 143°
2026-05-07 02:30 58.37139 34.28096 36990 ft 445 kts 143°
2026-05-07 02:30 58.32421 34.36492 37001 ft 445 kts 143°
2026-05-07 02:31 58.27717 34.44835 37007 ft 445 kts 143°
2026-05-07 02:31 58.23024 34.53123 36999 ft 445 kts 143°
2026-05-07 02:32 58.18233 34.61190 36986 ft 442 kts 146°
2026-05-07 02:32 58.13476 34.68724 36984 ft 442 kts 147°
2026-05-07 02:33 58.08788 34.76161 36988 ft 441 kts 147°
2026-05-07 02:33 58.04022 34.83681 36983 ft 442 kts 147°
2026-05-07 02:34 57.99121 34.91377 36983 ft 442 kts 147°
2026-05-07 02:34 57.94418 34.98736 36979 ft 442 kts 147°
2026-05-07 02:35 57.89702 35.06088 36977 ft 442 kts 147°
2026-05-07 02:35 57.84954 35.13425 36953 ft 443 kts 147°
2026-05-07 02:36 57.80223 35.20732 36963 ft 443 kts 147°
2026-05-07 02:36 57.75467 35.28065 36962 ft 443 kts 146°
2026-05-07 02:37 57.70723 35.35365 36962 ft 443 kts 146°
2026-05-07 02:37 57.65986 35.42633 36947 ft 444 kts 146°
2026-05-07 02:38 57.61218 35.49916 36963 ft 443 kts 146°
2026-05-07 02:38 57.56475 35.57129 36951 ft 443 kts 146°
2026-05-07 02:39 57.51648 35.64460 36970 ft 443 kts 146°
2026-05-07 02:39 57.46891 35.71695 36941 ft 443 kts 147°
2026-05-07 02:40 57.42110 35.78945 36953 ft 444 kts 147°
2026-05-07 02:40 57.37365 35.86101 36935 ft 443 kts 147°
2026-05-07 02:41 57.32569 35.93306 36940 ft 442 kts 147°
2026-05-07 02:41 57.27821 36.00415 36947 ft 442 kts 147°
2026-05-07 02:42 57.23034 36.07554 36938 ft 442 kts 146°
2026-05-07 02:42 57.18280 36.14620 36940 ft 442 kts 146°
2026-05-07 02:43 57.13490 36.21719 36916 ft 441 kts 146°
2026-05-07 02:43 57.08731 36.28752 36912 ft 441 kts 146°
2026-05-07 02:44 57.03917 36.35836 36918 ft 441 kts 146°
2026-05-07 02:44 56.99122 36.42789 36905 ft 440 kts 147°
2026-05-07 02:45 56.94346 36.49667 36897 ft 440 kts 147°
2026-05-07 02:45 56.89552 36.56556 36903 ft 440 kts 147°
2026-05-07 02:46 56.84756 36.63444 36893 ft 439 kts 146°
2026-05-07 02:46 56.79976 36.70360 36894 ft 439 kts 147°
2026-05-07 02:47 56.75180 36.77278 36893 ft 439 kts 147°
2026-05-07 02:47 56.72873 36.80922 36857 ft 445 kts 135°
2026-05-07 02:47 56.71252 36.85707 36876 ft 453 kts 113°
2026-05-07 02:48 56.70513 36.91249 36903 ft 458 kts 100°
2026-05-07 02:48 56.70159 36.97038 36904 ft 461 kts 97°
2026-05-07 02:48 56.69463 37.08601 36898 ft 460 kts 99°
2026-05-07 02:49 56.68532 37.20255 36897 ft 460 kts 101°
2026-05-07 02:49 56.67495 37.32033 36761 ft 457 kts 101°
2026-05-07 02:50 56.66884 37.37663 36305 ft 455 kts 111°
2026-05-07 02:50 56.65445 37.42651 35734 ft 442 kts 134°
2026-05-07 02:50 56.63150 37.46176 35299 ft 423 kts 157°
2026-05-07 02:50 56.60474 37.47735 34895 ft 403 kts 179°
2026-05-07 02:51 56.57686 37.47903 34428 ft 397 kts 181°
2026-05-07 02:51 56.54968 37.48719 33744 ft 407 kts 168°
2026-05-07 02:51 56.52288 37.50325 33242 ft 404 kts 168°
2026-05-07 02:51 56.49585 37.50887 32919 ft 384 kts 191°
2026-05-07 02:52 56.47147 37.49453 32649 ft 364 kts 216°
2026-05-07 02:52 56.45380 37.46380 32405 ft 348 kts 237°
2026-05-07 02:52 56.44089 37.42767 32113 ft 342 kts 233°
2026-05-07 02:52 56.42644 37.39371 31661 ft 339 kts 240°
2026-05-07 02:53 56.41881 37.35444 31200 ft 335 kts 266°
2026-05-07 02:53 56.42223 37.31331 30847 ft 333 kts 287°
2026-05-07 02:53 56.42958 37.27397 30405 ft 331 kts 281°
2026-05-07 02:53 56.43352 37.23334 29882 ft 328 kts 268°
2026-05-07 02:54 56.42886 37.19360 29413 ft 322 kts 245°
2026-05-07 02:54 56.41913 37.15803 29058 ft 319 kts 244°
2026-05-07 02:54 56.40932 37.12222 28572 ft 318 kts 239°
2026-05-07 02:54 56.39447 37.09306 28085 ft 320 kts 212°
2026-05-07 02:55 56.37355 37.08085 27750 ft 323 kts 185°
2026-05-07 02:55 56.35117 37.08860 27349 ft 330 kts 156°
2026-05-07 02:55 56.33338 37.11449 26869 ft 339 kts 128°
2026-05-07 02:55 56.32201 37.15144 26435 ft 341 kts 120°
2026-05-07 02:56 56.30967 37.18784 25896 ft 340 kts 131°
2026-05-07 02:56 56.29440 37.22015 25453 ft 336 kts 137°
2026-05-07 02:56 56.27785 37.24965 25047 ft 333 kts 141°
2026-05-07 02:56 56.26086 37.27779 24638 ft 330 kts 144°
2026-05-07 02:57 56.24125 37.29870 24214 ft 318 kts 166°
2026-05-07 02:57 56.22014 37.30947 23861 ft 313 kts 170°
2026-05-07 02:57 56.19902 37.31925 23445 ft 313 kts 170°
2026-05-07 02:57 56.17817 37.32702 23040 ft 306 kts 184°
2026-05-07 02:58 56.15818 37.31899 22654 ft 289 kts 216°
2026-05-07 02:58 56.14475 37.29424 22332 ft 276 kts 247°
2026-05-07 02:58 56.14095 37.26155 21974 ft 272 kts 268°
2026-05-07 02:58 56.14018 37.22745 21513 ft 274 kts 263°
2026-05-07 02:59 56.13773 37.19376 21080 ft 274 kts 259°
2026-05-07 02:59 56.13408 37.16027 20716 ft 273 kts 257°
2026-05-07 02:59 56.12987 37.12729 20366 ft 271 kts 256°
2026-05-07 02:59 56.12545 37.09477 20022 ft 269 kts 256°
2026-05-07 03:00 56.12062 37.06274 19664 ft 267 kts 249°
2026-05-07 03:00 56.10980 37.03613 19281 ft 270 kts 219°
2026-05-07 03:00 56.09384 37.01866 18992 ft 267 kts 215°
2026-05-07 03:00 56.07833 37.00120 18587 ft 267 kts 217°
2026-05-07 03:01 56.06250 36.98277 18217 ft 266 kts 217°
2026-05-07 03:01 56.04639 36.96390 17311 ft 281 kts 217°
2026-05-07 03:01 56.02970 36.94432 16136 ft 296 kts 217°
2026-05-07 03:01 56.01224 36.92394 14957 ft 306 kts 217°
2026-05-07 03:02 55.99348 36.90626 13773 ft 319 kts 200°
2026-05-07 03:02 55.97119 36.90478 12609 ft 336 kts 172°
2026-05-07 03:02 55.94972 36.92338 11420 ft 354 kts 144°
2026-05-07 03:02 55.93348 36.95723 10245 ft 361 kts 130°
2026-05-07 03:03 55.91692 36.99206 9025 ft 357 kts 137°
2026-05-07 03:03 55.90241 37.02853 7809 ft 363 kts 117°
2026-05-07 03:03 55.89624 37.07182 6626 ft 365 kts 95°
2026-05-07 03:03 55.89907 37.11715 5433 ft 364 kts 73°
2026-05-07 03:04 55.91008 37.15787 4382 ft 356 kts 59°
2026-05-07 03:04 55.92329 37.19411 3585 ft 343 kts 57°
2026-05-07 03:04 55.93639 37.22844 2816 ft 331 kts 57°
2026-05-07 03:04 55.94774 37.26313 2265 ft 309 kts 70°
2026-05-07 03:05 55.95435 37.29733 2026 ft 280 kts 79°
2026-05-07 03:05 55.95875 37.32917 2134 ft 233 kts 81°